Find Starlink 35127

NORAD ID: 65639 Int'l Des: 2025-210 Owner: SPXS Country: US Constellation: starlink operational
LEOCIRCULAR

Live Position

Loading 3D Globe...

About Starlink 35127

Description loading...

Upcoming Passes

Passes for default location (London). Set your location on the main map for personalized predictions.

Altitude History

Loading altitude history...

Two-Line Element Set

1 65639U 25210T 26106.77093847 .00008540 00000-0 30009-3 0 9991
2 65639 53.1588 130.0388 0001367 79.1023 281.0131 15.30203353 33561
Epoch: Apr 16, 2026 • Age: 16 hours

Current Status

Altitude 478.9 km
Velocity 7.63 km/s
Sub-Earth Point 44.71°N, 172.25°E
Launch Date Sep 18, 2025
Age 0.5 years
Type internet

Technical Details

Classification Payload
Mass 575.00 kg
Dry Mass 530.00 kg
Total Mass 575.00 kg
Length 0.30 m
Diameter 4.10 m
Span 29.00 m
Shape Box + pan
Manufacturer SPXS
Bus Type Starlink V2MO
Phase Status In Orbit
Owner/State SPXS/US

Most Searched